Simultaneous Nadir Overpasses (SNOs) Predictions

Prediction of SNOs between NOAA-19 and TERRA Satellite Orbit:

Table of predicted SNOs for the next 14.0 days since TLE Epoch: 1/26/2019
Index Date (NOAA-19) Time (NOAA-19) Lat,Lon (NOAA-19) SZA (NOAA-19 ) Date (TERRA) Time (TERRA) Lat,Lon (TERRA) SZA (TERRA ) Distance(km) Time Diff (sec)
1 01/28/2019 06:23:49 -77.97, -76.00 83.36 01/28/2019 06:23:57 -77.96, -76.12 83.38 3.08 8
2 01/30/2019 11:57:16 77.97, 20.70 96.05 01/30/2019 11:57:39 77.98, 20.57 96.05 3.20 23
3 01/30/2019 12:48:18 -77.93,-171.86 83.99 01/30/2019 12:47:07 -77.95,-171.95 84.00 2.56 71
4 02/01/2019 17:30:48 -78.02, 117.13 84.55 02/01/2019 17:31:21 -78.02, 117.31 84.53 4.24 33
5 02/01/2019 18:21:44 77.96, -75.29 95.41 02/01/2019 18:20:48 77.96, -75.30 95.39 0.28 56
6 02/03/2019 23:04:14 78.03,-146.21 94.81 02/03/2019 23:05:03 78.03,-146.07 94.83 3.31 49
7 02/03/2019 23:55:17 -77.99, 21.23 85.23 02/03/2019 23:54:32 -77.96, 21.24 85.27 3.98 45
8 02/06/2019 04:37:47 -78.04, -49.60 85.85 02/06/2019 04:38:47 -78.02, -49.54 85.86 2.94 60
9 02/06/2019 05:28:42 77.98, 118.01 94.10 02/06/2019 05:28:13 78.00, 118.03 94.12 2.20 29
10 02/08/2019 10:11:17 78.24, 45.95 93.59 02/08/2019 10:12:27 78.10, 47.42 93.55 36.90 70




NCC Satellite Simultaneous Nadir Overpasses (SNOs) Prediction Service
